• In Hungary
  • List of Countries
  • For 7 days
  • Water Temperature
  • Satellite Maps
  • Weather Map
  • News
  • Weather Widgets
  • user-avatar
    Login

    Hourly Weather Arino

    Today, 25 September, Tuesday

    Time Temperature Precipitation Wind Pressure Humidity
    00:00 +7°C° 0 mm 0 mps 741 mmHg 94%
    01:00 +8°C° 0 mm 1 mps 741 mmHg 94%
    02:00 +8°C° 0 mm 1 mps 740 mmHg 94%
    03:00 +8°C° 0 mm 1 mps 740 mmHg 93%
    04:00 +8°C° 0.1 mm 1 mps 740 mmHg 93%
    05:00 +8°C° 0.1 mm 1 mps 740 mmHg 93%
    06:00 +7°C° 0.1 mm 2 mps 739 mmHg 93%
    07:00 +8°C° 0.5 mm 3 mps 739 mmHg 92%
    08:00 +8°C° 0.5 mm 3 mps 739 mmHg 90%
    09:00 +8°C° 0 mm 4 mps 739 mmHg 88%
    10:00 +9°C° 0.2 mm 5 mps 738 mmHg 85%
    11:00 +9°C° 0.2 mm 6 mps 738 mmHg 83%
    12:00 +10°C° 0.2 mm 7 mps 738 mmHg 80%
    13:00 +10°C° 1 mm 7 mps 738 mmHg 82%
    14:00 +9°C° 1 mm 7 mps 738 mmHg 84%
    15:00 +9°C° 0 mm 5 mps 737 mmHg 89%
    16:00 +9°C° 0.7 mm 5 mps 737 mmHg 88%
    17:00 +9°C° 0.7 mm 6 mps 737 mmHg 88%
    18:00 +10°C° 0.7 mm 7 mps 737 mmHg 88%
    19:00 +10°C° 0.2 mm 6 mps 737 mmHg 89%
    20:00 +10°C° 0.2 mm 5 mps 737 mmHg 90%
    21:00 +10°C° 0.2 mm 5 mps 737 mmHg 90%
    22:00 +9°C° 0.1 mm 5 mps 737 mmHg 90%
    23:00 +8°C° 0.1 mm 4 mps 737 mmHg 89%

    Tomorrow, 26 September, Wednesday

    Time Temperature Precipitation Wind Pressure Humidity
    00:00 +8°C° 0.1 mm 4 mps 738 mmHg 88%
    01:00 +7°C° 0 mm 4 mps 738 mmHg 89%
    02:00 +6°C° 0 mm 4 mps 738 mmHg 90%
    03:00 +5°C° 0 mm 4 mps 739 mmHg 91%
    04:00 +5°C° 0 mm 4 mps 739 mmHg 91%
    05:00 +5°C° 0 mm 4 mps 740 mmHg 91%
    06:00 +5°C° 0 mm 4 mps 740 mmHg 91%
    07:00 +6°C° 0 mm 5 mps 741 mmHg 88%
    08:00 +7°C° 0 mm 5 mps 742 mmHg 86%
    09:00 +7°C° 0 mm 5 mps 742 mmHg 83%
    10:00 +7°C° 0 mm 5 mps 743 mmHg 82%
    11:00 +7°C° 0 mm 4 mps 743 mmHg 81%
    12:00 +7°C° 0 mm 4 mps 744 mmHg 80%
    13:00 +7°C° 0 mm 4 mps 744 mmHg 79%
    14:00 +7°C° 0 mm 4 mps 745 mmHg 77%
    15:00 +7°C° 0 mm 4 mps 745 mmHg 75%
    16:00 +8°C° 0 mm 3 mps 746 mmHg 76%
    17:00 +8°C° 0 mm 3 mps 746 mmHg 77%
    18:00 +7°C° 0 mm 3 mps 746 mmHg 78%
    19:00 +7°C° 0 mm 3 mps 746 mmHg 80%
    20:00 +5°C° 0 mm 3 mps 746 mmHg 81%
    21:00 +5°C° 0 mm 3 mps 746 mmHg 82%
    22:00 +4°C° 0 mm 3 mps 746 mmHg 82%
    23:00 +4°C° 0 mm 3 mps 745 mmHg 83%

    Day after tomorrow, 27 September, Thursday

    Time Temperature Precipitation Wind Pressure Humidity
    00:00 +3°C° 0 mm 3 mps 745 mmHg 83%
    01:00 +3°C° 0 mm 3 mps 745 mmHg 82%
    02:00 +3°C° 0 mm 4 mps 744 mmHg 82%
    03:00 +3°C° 0 mm 4 mps 744 mmHg 81%
    04:00 +1°C° 0 mm 4 mps 743 mmHg 81%
    05:00 +1°C° 0 mm 4 mps 742 mmHg 82%
    06:00 +1°C° 0 mm 5 mps 742 mmHg 82%
    07:00 +2°C° 0 mm 6 mps 741 mmHg 76%
    08:00 +3°C° 0 mm 7 mps 740 mmHg 69%
    09:00 +5°C° 0 mm 7 mps 739 mmHg 63%
    10:00 +5°C° 0.1 mm 8 mps 739 mmHg 63%
    11:00 +5°C° 0.1 mm 8 mps 738 mmHg 62%
    12:00 +6°C° 0.1 mm 8 mps 737 mmHg 62%
    13:00 +5°C° 0.6 mm 8 mps 736 mmHg 67%
    14:00 +4°C° 0.6 mm 8 mps 736 mmHg 72%
    15:00 +4°C° 0.6 mm 8 mps 735 mmHg 77%
    16:00 +3°C° 1 mm 7 mps 734 mmHg 80%
    17:00 +3°C° 1 mm 7 mps 734 mmHg 83%
    18:00 +3°C° 1 mm 6 mps 733 mmHg 86%
    19:00 +3°C° 0.6 mm 6 mps 733 mmHg 88%
    20:00 +3°C° 0.6 mm 5 mps 733 mmHg 89%
    21:00 +4°C° 0.6 mm 4 mps 732 mmHg 91%
    22:00 +4°C° 0 mm 4 mps 733 mmHg 91%
    23:00 +4°C° 0 mm 4 mps 733 mmHg 91%

    28 September, Friday

    Time Temperature Precipitation Wind Pressure Humidity
    00:00 +4°C° 0 mm 4 mps 733 mmHg 90%
    01:00 +2°C° 0 mm 5 mps 734 mmHg 91%
    02:00 +2°C° 0 mm 5 mps 734 mmHg 91%
    03:00 +2°C° 0 mm 5 mps 735 mmHg 91%
    04:00 +1°C° 0 mm 5 mps 735 mmHg 91%
    05:00 +1°C° 0 mm 5 mps 735 mmHg 92%
    06:00 +1°C° 0 mm 5 mps 735 mmHg 92%
    07:00 +2°C° 0 mm 5 mps 736 mmHg 88%
    08:00 +3°C° 0 mm 6 mps 736 mmHg 83%
    09:00 +4°C° 0 mm 6 mps 736 mmHg 79%
    10:00 +5°C° 0 mm 7 mps 736 mmHg 73%
    11:00 +6°C° 0 mm 7 mps 736 mmHg 68%
    12:00 +8°C° 0 mm 7 mps 736 mmHg 62%
    13:00 +7°C° 0.6 mm 6 mps 736 mmHg 69%
    14:00 +7°C° 0.6 mm 6 mps 735 mmHg 76%
    15:00 +6°C° 0.6 mm 5 mps 735 mmHg 83%
    16:00 +6°C° 1.9 mm 5 mps 734 mmHg 86%
    17:00 +7°C° 1.9 mm 6 mps 733 mmHg 88%
    18:00 +8°C° 1.9 mm 6 mps 731 mmHg 91%
    19:00 +8°C° 1.4 mm 7 mps 731 mmHg 90%
    20:00 +9°C° 1.4 mm 7 mps 731 mmHg 89%
    21:00 +10°C° 1.4 mm 8 mps 730 mmHg 88%
    22:00 +7°C° 0.3 mm 8 mps 732 mmHg 86%
    23:00 +6°C° 0.3 mm 7 mps 733 mmHg 84%

    29 September, Saturday

    Time Temperature Precipitation Wind Pressure Humidity
    00:00 +5°C° 0.3 mm 7 mps 734 mmHg 82%
    01:00 +4°C° 0 mm 6 mps 735 mmHg 83%
    02:00 +3°C° 0 mm 6 mps 737 mmHg 84%
    03:00 +2°C° 0 mm 5 mps 738 mmHg 85%
    04:00 +1°C° 0 mm 5 mps 739 mmHg 87%
    05:00 +1°C° 0 mm 5 mps 740 mmHg 88%
    06:00 0°C° 0 mm 4 mps 740 mmHg 90%
    07:00 +1°C° 0 mm 5 mps 741 mmHg 83%
    08:00 +2°C° 0 mm 6 mps 742 mmHg 77%
    09:00 +3°C° 0 mm 6 mps 742 mmHg 71%
    10:00 +4°C° 0 mm 6 mps 743 mmHg 65%
    11:00 +5°C° 0 mm 6 mps 743 mmHg 58%
    12:00 +7°C° 0 mm 6 mps 744 mmHg 51%
    13:00 +7°C° 0 mm 6 mps 744 mmHg 50%
    14:00 +7°C° 0 mm 6 mps 744 mmHg 49%
    15:00 +7°C° 0 mm 5 mps 745 mmHg 48%
    16:00 +6°C° 0 mm 4 mps 745 mmHg 54%
    17:00 +5°C° 0 mm 3 mps 746 mmHg 59%
    18:00 +4°C° 0 mm 2 mps 746 mmHg 64%
    19:00 +4°C° 0 mm 2 mps 746 mmHg 66%
    20:00 +4°C° 0 mm 2 mps 747 mmHg 68%
    21:00 +3°C° 0 mm 2 mps 747 mmHg 70%
    22:00 +3°C° 0 mm 2 mps 747 mmHg 71%
    23:00 +3°C° 0 mm 2 mps 748 mmHg 73%

    30 September, Sunday

    Time Temperature Precipitation Wind Pressure Humidity
    00:00 +3°C° 0 mm 2 mps 748 mmHg 74%
    01:00 +2°C° 0 mm 2 mps 748 mmHg 77%
    02:00 +2°C° 0 mm 2 mps 748 mmHg 80%
    03:00 0°C° 0 mm 3 mps 749 mmHg 83%
    04:00 0°C° 0 mm 3 mps 749 mmHg 84%
    05:00 0°C° 0 mm 3 mps 749 mmHg 86%
    06:00 0°C° 0 mm 3 mps 749 mmHg 88%
    07:00 +1°C° 0 mm 3 mps 750 mmHg 78%
    08:00 +2°C° 0 mm 3 mps 750 mmHg 68%
    09:00 +3°C° 0 mm 4 mps 750 mmHg 59%
    10:00 +4°C° 0 mm 4 mps 751 mmHg 55%
    11:00 +5°C° 0 mm 4 mps 751 mmHg 52%
    12:00 +5°C° 0 mm 4 mps 751 mmHg 48%
    13:00 +5°C° 0 mm 4 mps 751 mmHg 48%
    14:00 +5°C° 0 mm 4 mps 751 mmHg 48%
    15:00 +5°C° 0 mm 4 mps 751 mmHg 48%
    16:00 +4°C° 0 mm 3 mps 751 mmHg 53%
    17:00 +4°C° 0 mm 2 mps 751 mmHg 57%
    18:00 +3°C° 0 mm 2 mps 751 mmHg 62%
    19:00 +2°C° 0 mm 2 mps 751 mmHg 65%
    20:00 +2°C° 0 mm 2 mps 751 mmHg 67%
    21:00 +2°C° 0 mm 2 mps 751 mmHg 69%
    22:00 +1°C° 0 mm 2 mps 751 mmHg 71%
    23:00 0°C° 0 mm 3 mps 751 mmHg 73%
    Show more